Location: ?????
(55.6500°N, 37.2500°E)
Time: 03:16:44
(UTC+00:00)

ADEOS II - Pass Details

Date: 19 May 2025
Orbit: 793 x 796 km, 98.7° (Epoch: 14 June)

Event Time Altitude Azimuth Distance (km) Brightness Sun altitude
Rises 23:38:10 0° 20° (NNE) 3,311 7.3 -9.5°
Reaches altitude 10° 23:40:40 10° 28° (NNE) 2,376 6.2 -9.3°
Maximum altitude 23:45:33 38° 97° (E) 1,203 3.3 -8.9°
Drops below altitude 10° 23:50:23 10° 165° (SSE) 2,359 4.2 -8.5°
Enters shadow 23:52:32 - 172° (S) 3,163 4.7 -8.4°
